Time,TemperatureF,DewpointF,PressureIn,WindDirection,WindDirectionDegrees,WindSpeedMPH,WindSpeedGustMPH,Humidity,HourlyPrecipIn,Conditions,Clouds,dailyrainin,SoftwareType,DateUTC
2013-05-20 00:15:00,57.0,47.7,29.77,SSE,156,5.0,5.0,71,0.00,,,0.00,Wunderground v.1.12,2013-05-20 04:15:00,
2013-05-20 00:45:00,57.6,47.9,29.76,South,173,0.0,0.0,70,0.00,,,0.00,Wunderground v.1.12,2013-05-20 04:45:00,
2013-05-20 01:15:00,57.9,48.2,29.76,SW,219,0.0,0.0,70,0.00,,,0.00,Wunderground v.1.12,2013-05-20 05:15:00,
2013-05-20 01:45:00,58.0,48.3,29.76,SW,219,0.0,0.0,70,0.00,,,0.00,Wunderground v.1.12,2013-05-20 05:45:00,
2013-05-20 02:15:00,58.3,48.6,29.76,SW,215,4.0,4.0,70,0.00,,,0.00,Wunderground v.1.12,2013-05-20 06:15:00,
2013-05-20 02:45:00,58.8,48.6,29.74,SSW,203,0.0,0.0,69,0.00,,,0.00,Wunderground v.1.12,2013-05-20 06:45:00,
2013-05-20 03:15:00,59.0,48.8,29.74,WSW,247,0.0,0.0,69,0.00,,,0.00,Wunderground v.1.12,2013-05-20 07:15:00,
2013-05-20 03:45:00,59.2,49.0,29.74,West,268,0.0,0.0,69,0.00,,,0.00,Wunderground v.1.12,2013-05-20 07:45:00,
2013-05-20 04:15:00,58.7,48.6,29.73,SW,233,0.0,0.0,69,0.00,,,0.00,Wunderground v.1.12,2013-05-20 08:15:00,
2013-05-20 04:45:00,58.2,48.5,29.73,SSE,166,0.0,9.0,70,0.00,,,0.00,Wunderground v.1.12,2013-05-20 08:45:00,
2013-05-20 05:15:00,58.6,48.8,29.74,West,267,0.0,0.0,70,0.00,,,0.00,Wunderground v.1.12,2013-05-20 09:15:00,
2013-05-20 05:45:00,58.7,48.9,29.74,West,271,0.0,9.0,70,0.00,,,0.00,Wunderground v.1.12,2013-05-20 09:45:00,
2013-05-20 06:15:00,58.9,49.1,29.77,West,261,0.0,0.0,70,0.00,,,0.00,Wunderground v.1.12,2013-05-20 10:15:00,
2013-05-20 06:45:00,59.2,49.4,29.78,West,262,0.0,11.0,70,0.00,,,0.00,Wunderground v.1.12,2013-05-20 10:45:00,
2013-05-20 07:15:00,59.0,49.2,29.79,West,261,0.0,0.0,70,0.00,,,0.00,Wunderground v.1.12,2013-05-20 11:15:00,
2013-05-20 07:45:00,59.1,49.7,29.80,West,262,0.0,7.0,71,0.00,,,0.00,Wunderground v.1.12,2013-05-20 11:45:00,
2013-05-20 08:15:00,61.2,51.3,29.79,WSW,246,0.0,0.0,70,0.00,,,0.00,Wunderground v.1.12,2013-05-20 12:15:00,
2013-05-20 08:45:00,63.1,52.0,29.79,West,262,0.0,0.0,67,0.00,,,0.00,Wunderground v.1.12,2013-05-20 12:45:00,
2013-05-20 09:15:00,64.4,52.4,29.80,West,270,4.0,4.0,65,0.00,,,0.00,Wunderground v.1.12,2013-05-20 13:15:00,
2013-05-20 09:45:00,63.7,52.5,29.80,West,274,0.0,0.0,67,0.00,,,0.00,Wunderground v.1.12,2013-05-20 13:45:00,
2013-05-20 10:15:00,65.7,53.6,29.78,West,278,0.0,0.0,65,0.00,,,0.00,Wunderground v.1.12,2013-05-20 14:15:00,
2013-05-20 10:45:00,66.4,53.4,29.78,West,278,0.0,11.0,63,0.00,,,0.00,Wunderground v.1.12,2013-05-20 14:45:00,
2013-05-20 11:15:00,67.1,54.1,29.77,West,270,0.0,4.0,63,0.00,,,0.00,Wunderground v.1.12,2013-05-20 15:15:00,
2013-05-20 11:45:00,70.4,54.4,29.76,West,270,1.0,6.0,57,0.00,,,0.00,Wunderground v.1.12,2013-05-20 15:45:00,
2013-05-20 12:15:00,70.1,54.6,29.77,WSW,248,0.0,4.0,58,0.00,,,0.00,Wunderground v.1.12,2013-05-20 16:15:00,
2013-05-20 12:45:00,69.3,53.9,29.77,WSW,246,0.0,0.0,58,0.00,,,0.00,Wunderground v.1.12,2013-05-20 16:45:00,
2013-05-20 13:15:00,69.3,53.9,29.76,WSW,246,0.0,0.0,58,0.00,,,0.00,Wunderground v.1.12,2013-05-20 17:15:00,
2013-05-20 13:45:00,70.9,54.9,29.76,WSW,246,0.0,0.0,57,0.00,,,0.00,Wunderground v.1.12,2013-05-20 17:45:00,
2013-05-20 14:15:00,70.6,57.4,29.76,WSW,246,0.0,0.0,63,0.00,,,0.00,Wunderground v.1.12,2013-05-20 18:15:00,
2013-05-20 14:45:00,71.7,58.0,29.76,WSW,246,0.0,0.0,62,0.00,,,0.00,Wunderground v.1.12,2013-05-20 18:45:00,
2013-05-20 15:15:00,71.1,57.4,29.75,WSW,246,0.0,0.0,62,0.00,,,0.00,Wunderground v.1.12,2013-05-20 19:15:00,
2013-05-20 15:45:00,72.6,57.9,29.75,WSW,245,0.0,4.0,60,0.00,,,0.00,Wunderground v.1.12,2013-05-20 19:45:00,
2013-05-20 16:15:00,73.3,57.6,29.75,WSW,246,0.0,0.0,58,0.00,,,0.00,Wunderground v.1.12,2013-05-20 20:15:00,
2013-05-20 16:45:00,73.3,57.1,29.74,WSW,246,0.0,3.0,57,0.00,,,0.00,Wunderground v.1.12,2013-05-20 20:45:00,
2013-05-20 17:15:00,73.2,57.1,29.74,WSW,245,0.0,0.0,57,0.00,,,0.00,Wunderground v.1.12,2013-05-20 21:15:00,
2013-05-20 17:45:00,72.8,56.7,29.74,WSW,249,0.0,0.0,57,0.00,,,0.00,Wunderground v.1.12,2013-05-20 21:45:00,
2013-05-20 18:15:00,72.1,56.5,29.73,WSW,248,0.0,0.0,58,0.00,,,0.00,Wunderground v.1.12,2013-05-20 22:15:00,
2013-05-20 18:45:00,70.6,56.5,29.72,N/A,-737280,0.0,0.0,61,0.00,,,0.00,Wunderground v.1.12,2013-05-20 22:45:00,
2013-05-20 19:15:00,69.1,56.0,29.72,WSW,247,0.0,0.0,63,0.00,,,0.00,Wunderground v.1.12,2013-05-20 23:15:00,
2013-05-20 19:45:00,68.4,56.2,29.71,WSW,248,0.0,0.0,65,0.00,,,0.00,Wunderground v.1.12,2013-05-20 23:45:00,
2013-05-20 20:15:00,66.6,55.3,29.71,WSW,249,0.0,0.0,67,0.00,,,0.00,Wunderground v.1.12,2013-05-21 00:15:00,
2013-05-20 20:45:00,65.2,55.2,29.71,WSW,247,0.0,0.0,70,0.00,,,0.00,Wunderground v.1.12,2013-05-21 00:45:00,
2013-05-20 21:15:00,63.5,54.3,29.70,WSW,248,0.0,0.0,72,0.00,,,0.00,Wunderground v.1.12,2013-05-21 01:15:00,
2013-05-20 21:45:00,62.0,52.9,29.72,WSW,247,0.0,0.0,72,0.00,,,0.00,Wunderground v.1.12,2013-05-21 01:45:00,
2013-05-20 22:15:00,61.1,52.4,29.69,WSW,248,0.0,0.0,73,0.00,,,0.00,Wunderground v.1.12,2013-05-21 02:15:00,
2013-05-20 22:45:00,60.4,48.6,29.70,WSW,248,0.0,0.0,65,0.00,,,0.00,Wunderground v.1.12,2013-05-21 02:45:00,
2013-05-20 23:15:00,59.6,48.6,29.70,WSW,248,0.0,0.0,67,0.00,,,0.00,Wunderground v.1.12,2013-05-21 03:15:00,
2013-05-20 23:45:00,59.2,49.4,29.70,WSW,248,0.0,0.0,70,0.00,,,0.00,Wunderground v.1.12,2013-05-21 03:45:00,